Vorticity
3 4 2 3 -2 5 27 17 4 4 4 4 1 7 9 7 7 6 8 5 5 6 5 6 5 6 7 6 6 7 7 8 6 4 5 5 5 7 9 10 9 8 8 7 7 7 7 7 6 6 6 6 5 3 4 3 4 5 2 4 7 5 5 6 8 8 7 6 5 5 6 6 6 7 7 5 4 4 5 7 8 6 6 7 7 7 6 6 8 8 7 7 6 7 8 8 7
1 4 3 5 1 2 28 22 4 4 4 3 1 9 9 8 7 6 8 6 5 4 4 4 5 6 5 5 5 6 8 10 10 8 8 7 7 7 10 10 9 8 7 7 7 8 7 6 4 5 6 6 6 4 3 4 4 2 2 5 7 4 4 5 5 5 4 4 4 6 5 5 5 6 6 4 4 4 7 8 6 6 7 8 7 6 4 7 9 6 6 5 5 7 10 9 6
1 5 3 3 1 8 38 25 2 5 4 2 3 9 9 7 6 6 8 9 8 5 6 5 4 7 6 6 5 7 8 10 12 10 9 8 7 6 8 8 7 7 6 6 7 8 7 5 4 5 6 6 7 6 2 4 4 4 5 6 6 4 4 5 4 1 2 4 5 5 5 5 5 5 5 3 4 4 6 6 5 6 7 8 6 5 5 9 8 5 5 4 6 8 8 7 6
3 4 2 1 1 23 50 24 1 6 2 2 5 7 7 6 6 7 9 10 8 6 9 6 4 7 6 7 5 7 8 7 10 10 7 7 8 6 6 6 6 6 5 6 6 7 6 4 4 5 6 6 7 6 3 5 4 4 6 6 5 3 4 5 5 2 2 4 4 5 6 5 5 4 4 4 5 4 5 5 6 8 10 9 5 6 9 9 6 5 5 3 5 7 6 5 5
4 3 1 -2 9 45 57 19 0 5 1 2 3 7 6 5 7 8 10 9 8 7 9 7 4 4 5 7 7 8 9 7 7 8 5 5 7 6 4 5 5 5 4 5 5 6 5 4 4 4 5 5 5 5 4 4 3 4 5 5 4 3 4 5 5 4 4 5 4 5 7 6 6 6 5 6 6 6 5 5 7 11 13 9 5 7 10 6 4 7 5 3 6 7 7 5 4
4 2 1 -3 19 52 42 9 0 4 2 2 4 8 6 3 8 8 9 12 9 6 6 6 4 4 5 7 9 8 9 8 6 7 6 4 4 5 5 4 4 4 4 4 5 5 4 5 4 5 5 5 5 5 4 4 4 5 5 4 4 4 4 4 5 4 5 5 3 5 7 7 6 6 7 6 7 6 6 6 8 13 11 7 7 8 8 4 5 7 4 5 7 8 7 5 3
3 2 2 -2 23 40 19 6 3 4 2 1 6 7 5 3 9 9 9 15 11 6 6 5 4 5 5 5 6 7 7 7 7 8 9 6 3 4 5 5 5 4 5 5 6 5 5 6 5 5 4 5 5 4 5 4 4 5 5 5 4 5 4 5 5 4 4 4 4 4 5 7 5 6 7 6 7 6 6 6 9 13 8 7 8 7 6 4 6 6 4 6 8 8 6 4 2
3 3 3 -1 23 30 6 7 6 4 3 -0 5 7 5 4 8 9 9 13 9 6 5 3 7 7 4 5 5 5 6 5 7 8 9 9 5 5 5 5 7 6 6 6 6 6 5 6 5 4 4 4 4 4 4 4 5 5 5 5 6 6 5 6 6 4 5 5 4 3 5 7 5 5 7 7 6 5 6 5 9 11 6 6 7 6 6 5 6 5 4 7 9 8 5 3 2
4 3 5 -2 18 30 4 4 8 3 2 -0 6 8 5 5 8 8 7 11 7 4 4 4 9 7 2 3 4 4 4 4 7 8 8 9 7 6 6 5 5 6 6 7 7 6 6 5 5 4 4 4 3 3 4 5 5 6 6 5 6 7 7 7 7 5 6 6 5 6 5 6 6 5 6 7 6 6 6 7 10 9 4 5 6 5 5 5 6 4 4 7 9 7 4 2 2
4 2 5 -1 11 33 15 1 7 3 -0 2 7 8 5 7 9 8 9 11 9 5 5 5 6 5 1 1 2 2 2 4 7 8 7 7 7 6 6 6 6 6 5 6 7 7 6 5 6 6 5 4 5 5 4 5 5 5 6 6 6 8 9 8 8 7 6 6 7 7 4 5 7 6 7 7 6 5 7 10 12 8 4 5 5 5 5 5 5 4 4 7 9 6 3 2 3
4 2 4 1 2 24 21 2 9 7 -1 6 8 8 6 7 9 7 10 10 9 8 5 4 3 4 2 2 2 1 2 3 7 8 7 6 5 6 5 5 6 7 6 6 6 6 7 6 6 6 5 5 6 7 5 5 5 5 5 7 9 9 8 7 8 6 5 6 7 7 5 5 4 4 8 9 5 5 8 11 11 6 3 5 5 5 6 6 5 4 6 9 9 5 3 2 3
4 3 4 4 -1 8 14 6 18 13 -2 9 9 7 8 6 9 6 8 8 8 8 4 3 4 4 1 3 3 1 2 3 6 8 8 7 5 5 5 5 5 6 7 7 7 7 8 7 7 7 8 7 7 8 6 6 6 6 7 8 9 8 7 7 7 6 7 8 8 8 5 3 3 5 9 9 6 6 10 12 10 5 3 5 5 6 7 6 5 4 7 10 8 4 3 2 3
4 4 3 5 3 1 7 6 19 17 -1 9 8 6 9 5 9 7 9 9 9 10 5 5 5 1 -0 4 4 1 3 2 4 6 8 8 7 7 5 5 4 6 6 6 7 8 9 7 7 7 9 11 10 9 8 8 8 8 8 6 7 6 6 7 7 7 9 8 7 8 6 4 5 7 8 7 6 8 11 11 9 4 4 5 5 8 8 7 5 5 8 10 6 3 2 2 4
3 4 4 5 7 2 5 3 13 20 5 7 5 5 9 5 9 8 10 10 8 11 7 6 5 0 1 6 4 2 4 2 4 5 7 7 7 8 7 6 4 5 5 6 7 8 9 8 8 9 10 11 12 11 10 10 9 10 9 5 5 6 6 6 7 7 9 9 7 8 6 6 6 8 8 7 7 9 10 10 6 3 4 5 7 11 9 7 5 6 9 9 5 3 2 2 4
3 3 4 4 8 4 6 4 10 21 10 7 4 4 8 5 8 7 10 9 6 9 7 6 4 2 5 6 4 3 4 3 4 4 6 6 6 8 7 7 5 5 6 7 9 8 8 9 10 11 11 10 12 12 12 11 10 10 10 6 6 7 6 6 7 8 10 9 8 8 7 6 7 8 7 6 8 9 8 6 4 4 5 7 11 12 9 6 5 7 10 7 4 3 2 3 5
3 3 3 3 6 2 2 4 10 21 15 9 2 3 8 5 7 8 8 5 4 7 4 5 4 3 5 7 6 5 4 3 4 4 5 6 6 8 8 7 6 5 6 8 9 8 10 10 10 11 12 10 10 10 10 12 11 11 11 10 8 6 7 7 8 9 9 8 8 9 8 7 7 7 6 6 8 8 6 4 4 5 7 10 13 11 8 6 6 9 10 5 3 2 2 4 6
2 2 3 3 4 1 2 1 9 23 19 10 2 2 7 5 5 6 7 3 5 7 2 2 4 3 5 9 8 6 5 4 4 4 5 6 7 8 8 7 5 5 5 6 6 9 12 10 9 11 12 10 8 8 7 9 10 11 9 11 11 8 8 8 8 10 9 8 8 9 9 8 8 6 6 8 9 6 5 4 5 6 9 13 13 9 7 7 8 11 9 4 3 2 2 5 6
3 3 3 2 2 1 2 -1 7 22 18 10 3 2 5 4 5 5 7 6 7 8 3 1 3 5 5 9 8 5 6 5 5 5 5 6 7 7 7 5 4 4 4 6 8 11 12 9 9 11 10 7 6 7 8 7 9 11 7 10 13 9 10 9 9 10 9 9 9 10 9 8 8 6 7 9 8 5 5 5 6 8 12 15 12 7 6 7 10 11 8 3 2 2 4 6 6
5 5 4 4 3 1 3 2 13 23 17 11 3 1 3 2 5 6 7 8 9 6 2 1 3 5 3 5 7 6 6 5 5 5 5 6 7 6 5 5 4 5 5 8 11 11 10 9 10 9 8 6 5 8 8 8 9 12 12 14 14 11 12 11 11 11 10 11 10 10 10 8 7 6 8 8 6 5 5 5 6 10 12 12 9 6 7 9 11 10 6 3 2 3 5 6 6
7 6 3 5 4 3 7 6 24 30 16 12 3 -2 -0 2 6 6 6 5 8 4 -0 1 1 2 2 4 6 6 6 5 6 5 5 6 7 7 6 7 6 6 7 9 10 10 9 9 10 8 6 6 8 10 9 9 9 11 14 17 16 14 15 13 11 12 10 12 11 11 10 8 7 7 9 7 5 5 4 6 8 10 10 9 7 6 7 10 12 8 5 3 3 4 5 5 7
7 6 1 5 1 3 8 10 38 36 13 12 2 -1 -2 -0 5 4 6 5 6 4 2 6 5 1 -1 3 5 5 6 4 6 5 6 7 7 8 7 8 6 6 9 9 9 9 8 9 9 7 6 7 11 13 12 11 10 12 14 16 19 17 16 16 13 12 11 11 11 10 9 7 7 8 9 7 5 5 5 7 9 10 9 8 7 7 9 11 11 6 4 3 3 5 5 6 7
8 7 2 6 2 5 8 22 56 34 9 14 0 1 -0 -2 5 4 8 8 8 6 4 8 8 4 0 4 5 3 5 4 6 5 5 8 7 8 7 7 6 8 11 10 9 8 9 9 9 7 7 9 11 13 13 13 11 14 15 16 20 19 17 17 15 12 11 11 11 9 8 6 8 9 8 6 4 5 6 8 10 9 8 7 7 7 10 12 9 4 3 3 4 5 6 6 7
7 8 5 6 3 8 8 39 77 29 2 15 -0 2 2 -0 5 2 6 7 8 7 6 5 4 9 7 7 6 2 6 6 6 6 6 8 6 7 8 9 9 11 11 10 9 9 10 10 8 6 5 8 9 11 12 13 13 15 15 15 15 15 14 13 13 12 10 10 10 9 8 8 8 8 7 5 4 5 7 9 10 9 7 7 7 7 11 11 7 4 3 4 4 5 5 6 7
7 8 7 6 2 8 5 27 56 19 4 12 -3 2 3 3 4 1 6 5 7 7 7 4 2 12 11 6 4 3 8 6 6 6 6 8 7 7 9 11 12 11 11 12 11 9 11 10 7 4 3 5 8 11 11 11 14 15 14 13 12 12 11 9 9 9 8 8 8 8 8 8 8 7 6 5 4 5 7 9 9 9 8 7 6 8 11 9 5 3 4 5 4 5 5 5 7
7 8 7 6 3 8 4 4 13 11 24 17 -6 1 5 6 3 1 7 5 7 8 6 4 2 12 11 4 3 4 7 6 7 6 6 8 7 8 10 12 13 11 10 11 12 11 12 9 6 5 4 6 8 9 10 11 14 14 12 12 13 12 11 10 9 8 7 6 7 8 8 8 8 7 6 5 5 6 6 8 8 8 8 7 8 10 10 7 4 4 5 5 5 5 5 5 7
6 8 5 5 4 5 5 4 4 13 32 18 -4 3 5 4 1 2 9 5 6 8 7 5 4 10 7 4 4 5 7 6 8 6 6 9 8 10 12 13 11 10 10 9 11 12 12 8 6 10 11 8 7 8 9 12 14 12 10 10 11 12 12 12 11 9 7 7 7 8 9 9 7 6 6 6 5 5 6 7 8 8 8 8 10 12 9 5 3 4 5 5 5 5 5 6 7
5 8 6 5 5 5 2 3 4 8 23 16 1 6 5 2 1 2 8 7 5 6 7 6 6 8 5 4 4 4 5 5 6 6 6 8 9 11 12 11 10 10 10 9 10 10 8 6 7 14 16 9 7 9 8 10 12 10 9 9 10 11 12 12 11 8 6 6 8 8 9 8 7 7 7 7 6 4 5 6 7 8 8 8 11 13 8 3 3 4 5 5 5 5 5 6 7
5 6 8 5 4 5 2 1 3 5 20 21 6 5 4 2 3 2 6 8 5 4 6 8 8 7 5 4 3 3 4 4 5 6 6 8 10 12 12 11 9 9 8 9 11 9 6 6 10 14 13 8 8 9 7 8 9 9 8 8 9 10 12 12 11 9 7 6 7 7 7 6 7 8 9 8 6 5 6 6 8 8 8 8 10 12 7 2 3 3 4 4 5 6 5 6 7
6 6 6 5 4 6 3 1 2 3 18 27 12 5 4 2 2 1 6 8 5 4 5 8 10 7 5 3 3 3 4 5 6 7 6 8 11 12 12 10 10 8 6 9 11 9 8 10 13 13 9 7 9 8 5 7 8 8 8 6 7 9 11 12 12 11 9 8 7 6 6 7 7 8 8 8 6 7 7 7 8 8 8 9 10 8 5 3 3 3 4 5 6 6 6 6 7
6 7 6 5 4 6 5 -1 1 6 20 30 17 6 4 1 1 0 7 8 5 5 4 10 12 6 4 3 3 3 4 5 6 7 7 9 13 12 11 9 8 8 8 10 11 9 10 11 10 9 9 7 8 8 5 6 7 8 7 6 6 7 8 10 10 10 9 8 7 7 8 8 8 7 6 6 6 7 7 8 8 8 8 9 8 5 3 3 3 4 5 6 7 7 6 6 7
7 6 5 6 4 5 6 -0 4 10 19 31 20 6 2 -0 1 2 6 7 4 4 3 11 13 5 4 3 3 4 4 5 5 6 7 10 13 11 11 11 9 10 11 10 9 10 10 8 6 5 7 7 7 7 7 6 6 7 8 8 7 6 7 7 8 8 8 8 8 8 8 8 7 6 6 6 7 7 8 8 7 8 10 9 5 3 3 4 4 6 7 7 7 7 7 6 7
7 7 4 6 6 7 7 1 8 11 16 34 23 4 2 -0 2 4 5 5 4 6 3 8 12 5 4 4 3 4 3 3 5 6 6 10 13 10 11 12 11 11 11 9 8 11 9 6 5 5 7 7 7 7 7 8 7 7 7 7 7 7 7 7 8 8 7 8 8 7 7 6 7 6 7 7 8 9 9 8 8 8 9 7 3 3 4 5 6 7 7 7 7 8 8 7 7
6 6 5 6 6 7 6 0 10 9 8 33 26 4 2 1 2 4 4 5 4 8 5 5 10 7 6 5 3 3 3 3 4 5 6 9 12 10 10 12 11 9 8 8 9 11 9 7 6 6 7 8 8 8 7 8 8 8 7 7 7 7 7 7 8 8 8 8 8 8 7 8 8 8 9 10 10 10 9 8 8 8 7 5 3 4 5 5 6 7 7 9 9 8 8 7 7
7 5 2 6 6 7 8 2 11 8 1 30 32 7 3 2 3 4 2 5 5 8 7 3 6 8 8 6 3 2 3 5 5 6 6 8 12 10 10 12 10 8 8 8 10 10 8 6 7 7 9 10 10 10 8 9 9 9 8 8 8 7 8 8 8 8 8 9 9 9 10 10 10 10 10 11 11 10 9 8 8 7 5 4 4 4 4 5 6 7 10 12 9 7 7 6 5
7 7 2 5 5 7 9 2 11 9 1 35 42 10 4 4 2 2 2 6 5 4 7 6 3 7 10 5 3 4 5 7 6 7 6 7 12 10 9 12 9 6 8 9 8 8 6 6 8 9 10 11 10 10 9 10 10 10 10 10 10 9 9 9 9 10 10 11 12 11 11 11 11 11 11 10 9 8 7 7 6 5 4 3 3 3 4 6 7 9 12 13 9 7 6 5 5
7 9 4 4 6 7 6 0 10 10 3 33 42 11 3 7 3 1 3 5 4 3 6 9 5 5 9 7 5 5 4 7 7 7 6 6 11 11 9 11 9 7 8 9 7 5 6 8 10 11 11 11 10 9 10 10 10 10 11 11 11 11 11 12 13 14 14 14 13 12 11 10 9 9 9 8 7 6 6 5 4 4 4 4 4 6 8 7 7 8 12 13 10 7 5 4 5
6 8 6 5 6 7 5 -1 5 11 6 20 30 12 5 10 6 0 2 4 3 5 6 8 8 5 7 8 6 5 5 7 8 6 5 7 11 10 10 10 8 8 7 7 5 4 7 10 11 11 11 11 10 9 10 11 11 12 13 13 14 14 14 14 14 14 14 12 11 10 9 8 8 7 6 6 6 5 4 4 4 5 5 5 6 9 10 8 7 9 12 12 9 7 5 4 4
7 8 8 7 6 7 7 1 1 9 8 15 22 16 8 7 4 0 4 8 4 5 6 5 7 5 6 8 7 6 6 7 8 6 4 6 11 10 9 10 7 7 8 6 4 4 8 10 10 10 11 12 10 10 11 12 13 14 15 15 14 14 12 11 10 9 8 8 7 7 6 6 5 5 5 5 6 5 5 5 6 6 7 7 8 10 10 8 8 10 11 10 8 6 5 5 5
7 8 8 10 11 9 6 0 5 12 7 15 24 18 7 1 4 6 6 11 7 3 5 5 5 5 4 7 9 7 6 7 6 5 5 5 10 11 8 8 7 7 8 5 4 5 9 11 10 10 12 12 11 11 12 14 15 14 13 13 12 10 8 7 6 6 5 5 5 5 5 5 5 5 6 6 6 6 6 7 7 7 7 8 9 10 10 9 8 9 10 8 6 6 6 5 5
8 7 5 7 10 9 5 -4 4 18 11 11 21 19 9 -4 -2 7 6 11 10 2 4 6 5 6 6 7 9 7 3 6 7 5 5 5 8 12 10 7 7 8 7 5 4 5 9 12 11 12 13 13 12 12 13 13 13 12 10 10 8 6 5 4 4 5 5 5 5 5 5 5 6 5 6 6 6 7 6 6 6 7 7 8 9 9 9 8 7 9 10 7 6 6 6 5 5
9 9 5 4 5 6 8 -7 -10 16 20 8 11 15 13 6 1 3 5 12 10 1 3 7 6 6 6 7 8 7 4 5 7 5 4 4 7 11 11 7 6 6 6 4 4 5 10 12 11 13 14 14 13 12 11 11 9 7 6 5 4 4 4 4 5 4 5 5 5 6 5 5 6 6 6 6 6 7 7 6 6 6 7 8 8 8 8 8 7 8 9 8 6 6 5 5 5
7 9 8 6 6 6 8 -4 -17 3 18 9 10 10 8 16 15 3 3 12 10 2 1 3 7 8 6 7 8 7 6 7 7 6 5 5 6 11 12 8 5 6 6 4 4 6 11 12 11 13 14 13 12 11 10 9 7 5 4 3 3 4 4 4 4 4 4 4 5 5 5 5 6 6 7 7 8 9 9 8 7 8 8 8 8 8 8 8 8 8 8 7 6 6 6 5 5
6 5 7 4 5 7 6 1 -10 -4 8 5 10 14 6 14 23 10 5 12 10 4 1 1 4 9 8 6 9 9 6 7 9 7 6 6 4 9 13 9 4 5 6 4 4 8 12 11 10 12 13 12 10 9 8 7 6 4 3 4 4 4 4 3 3 4 4 4 4 4 5 5 6 6 7 8 9 10 11 9 8 8 9 9 8 7 7 7 8 9 8 7 7 7 6 5 5
7 -0 6 7 6 10 8 4 -5 -4 9 5 1 11 12 13 20 17 7 8 14 8 1 1 3 7 9 6 8 11 7 5 10 9 5 5 4 6 12 11 5 4 6 4 4 9 14 10 8 10 11 10 7 6 6 5 4 4 4 4 4 3 3 3 3 3 4 4 4 5 5 5 5 7 8 9 10 10 10 9 8 8 9 9 9 8 6 6 6 8 8 6 7 10 9 7 6
9 -3 2 10 8 10 10 5 -7 -8 10 14 3 3 9 9 13 26 20 3 7 15 6 1 4 6 7 7 7 10 9 7 8 10 6 5 5 5 10 12 7 5 5 4 3 8 14 11 5 7 9 8 7 4 4 4 4 4 4 4 3 3 3 3 3 3 3 4 4 5 5 5 5 7 9 11 11 10 9 9 9 8 9 8 8 9 8 6 5 7 9 7 6 9 11 10 8
12 -2 -2 8 9 9 9 6 -2 -9 -0 13 13 4 3 1 -2 20 39 16 0 13 12 1 4 9 5 4 7 9 9 8 8 9 9 7 6 4 8 11 9 6 4 4 3 6 13 12 5 4 6 5 5 5 4 4 5 4 4 4 3 3 3 3 3 2 3 4 4 5 4 5 6 7 9 12 11 11 10 10 9 9 9 8 8 10 10 7 6 6 8 9 8 8 9 9 8
13 1 -4 1 6 9 6 5 4 -1 -4 3 11 10 9 8 -4 -0 26 34 17 8 9 6 3 8 8 2 5 10 9 8 9 9 10 10 7 4 7 10 10 7 4 4 3 5 11 12 7 3 3 4 4 5 5 4 5 4 4 4 3 3 3 3 2 2 3 4 5 5 5 5 7 7 8 12 12 11 11 11 10 10 9 8 9 10 10 9 8 7 7 9 9 7 7 7 8
13 7 -1 -2 5 10 5 5 5 0 1 4 3 6 10 13 13 5 4 27 41 19 2 9 9 5 7 4 3 8 9 8 9 9 9 12 9 4 6 10 10 8 5 4 3 4 8 10 8 5 3 4 4 5 6 5 5 5 4 4 3 3 3 2 2 2 3 4 4 5 5 4 6 7 7 11 13 11 11 11 10 10 9 9 9 9 9 9 9 8 8 8 8 8 8 7 6
13 10 3 -2 4 8 4 6 8 0 3 10 5 6 11 6 9 18 6 8 39 41 9 1 11 8 3 4 4 5 8 8 9 9 8 11 10 5 5 7 10 9 7 5 3 3 7 8 7 5 3 2 3 4 5 5 4 4 4 4 3 2 3 3 3 3 3 4 3 3 4 5 7 7 6 9 12 10 10 11 10 9 9 9 9 9 9 8 9 8 7 7 7 7 7 7 6
16 12 5 2 6 10 7 5 6 2 4 11 8 4 13 12 3 12 16 1 12 40 31 5 4 10 4 2 4 4 6 7 8 9 9 10 9 6 5 5 7 11 9 6 5 3 5 7 7 6 3 2 2 3 4 5 5 4 4 4 3 3 3 3 3 3 3 3 3 2 3 5 7 7 6 8 11 10 8 9 10 9 9 9 9 8 8 8 8 8 8 7 7 6 6 6 6
20 15 7 4 5 7 9 7 3 3 8 14 14 4 7 21 16 6 14 11 -0 17 39 24 2 3 4 1 3 5 6 6 7 8 9 11 10 6 6 5 5 10 11 8 6 4 4 6 7 6 4 2 2 3 4 5 5 5 4 4 4 3 3 3 3 4 4 3 3 3 4 6 7 7 6 8 11 10 8 7 8 8 9 9 9 9 9 9 9 8 7 7 7 7 6 6 6
19 15 7 5 5 3 5 8 4 2 7 12 13 9 5 14 22 14 8 13 7 4 26 34 13 -0 -0 0 4 7 5 5 7 7 9 10 10 8 6 5 5 7 10 11 7 5 4 5 7 7 5 3 3 2 3 4 4 4 5 4 4 4 3 4 3 3 3 3 3 4 4 4 7 8 6 7 10 11 9 7 6 7 7 8 10 10 10 10 10 10 9 9 8 8 8 8 8
18 13 7 7 9 7 5 6 4 4 8 9 6 6 9 8 13 20 10 4 8 7 15 33 26 7 1 1 5 9 7 5 5 5 9 11 9 9 7 6 5 5 8 10 9 7 5 4 5 6 5 4 4 3 3 3 3 4 4 4 4 4 4 3 3 3 2 3 3 3 4 4 6 8 7 7 10 11 11 9 8 7 7 7 9 8 8 9 9 10 10 11 11 11 11 10 10
17 16 10 9 8 7 7 6 5 7 6 6 4 2 10 12 8 16 16 5 3 3 8 28 32 15 6 4 4 9 8 6 6 5 6 10 9 8 8 7 6 5 5 8 10 8 6 5 5 5 5 5 4 4 3 2 3 2 2 3 3 3 3 3 3 3 3 3 3 2 3 4 5 7 7 8 9 10 10 10 9 9 8 8 8 8 8 7 7 7 8 8 9 9 9 8 8
10 13 10 8 7 4 6 5 4 7 5 1 4 6 8 13 11 12 16 11 6 2 4 24 36 22 9 6 3 7 9 5 6 7 5 8 10 7 6 7 7 6 4 6 9 9 7 6 6 5 5 5 4 4 4 3 3 3 2 2 3 3 3 3 3 3 3 3 3 3 4 5 5 6 6 7 9 10 9 9 8 8 8 8 8 7 8 8 7 7 7 7 7 7 8 8 8
5 8 9 8 7 2 9 15 6 4 7 2 3 9 9 10 13 13 14 12 10 10 6 19 40 32 11 9 7 3 8 10 6 6 7 7 9 8 6 6 7 8 6 5 6 8 9 8 7 6 6 5 5 4 4 4 4 4 4 3 3 3 2 3 3 3 3 3 3 4 6 7 7 6 6 7 9 10 9 8 8 7 7 6 6 6 6 6 7 7 7 7 7 7 6 7 7
5 7 9 11 7 -4 7 25 16 5 10 8 3 6 8 11 14 14 17 14 9 11 8 16 47 46 14 9 13 0 3 15 10 5 7 7 7 8 6 5 7 8 8 6 5 5 7 9 8 7 7 6 6 5 5 5 4 4 4 4 4 3 3 3 3 3 4 4 5 6 7 8 8 7 6 7 9 10 9 8 8 7 7 6 6 6 5 5 5 5 6 6 6 6 6 6 6
5 7 7 12 10 -6 -3 14 13 5 8 8 6 5 4 10 13 12 16 17 12 12 9 10 37 51 24 5 6 -1 1 15 13 6 6 6 7 9 7 6 6 6 7 7 6 5 4 6 7 7 7 8 8 8 6 6 5 5 5 4 5 4 4 4 4 5 6 6 7 8 8 9 8 7 7 7 8 9 8 7 7 6 6 7 6 6 6 6 6 5 6 6 6 6 6 7 7
Height
5898 5898 5897 5896 5895 5894 5895 5895 5895 5896 5896 5897 5897 5897 5897 5897 5897 5897 5898 5898 5898 5898 5897 5897 5897 5897 5897 5897 5897 5897 5897 5897 5897 5897 5897 5898 5898 5900 5901 5901 5901 5901 5901 5901 5901 5902 5903 5903 5904 5905 5905 5905 5905 5906 5908 5909 5910 5913 5913 5910 5907 5908 5909 5910 5911 5911 5912 5912 5913 5914 5915 5917 5918 5919 5919 5920 5920 5920 5920 5919 5919 5919 5919 5920 5921 5921 5921 5921 5921 5921 5921 5922 5924 5926 5927 5927 5927
5898 5898 5897 5895 5894 5894 5894 5895 5895 5896 5896 5897 5897 5897 5897 5898 5897 5897 5898 5899 5899 5899 5897 5897 5897 5898 5898 5898 5898 5897 5898 5898 5898 5899 5898 5899 5899 5900 5901 5902 5902 5902 5902 5902 5902 5903 5904 5904 5905 5905 5905 5906 5907 5908 5910 5910 5911 5913 5912 5910 5909 5909 5910 5911 5911 5912 5912 5913 5913 5914 5915 5916 5918 5919 5920 5921 5921 5921 5921 5920 5920 5921 5921 5921 5921 5922 5922 5923 5923 5922 5922 5922 5923 5926 5928 5928 5929
5898 5897 5896 5895 5893 5893 5893 5894 5895 5896 5897 5897 5897 5897 5898 5898 5898 5897 5898 5899 5900 5900 5898 5897 5898 5898 5899 5899 5899 5898 5899 5899 5899 5900 5900 5900 5900 5900 5901 5902 5902 5903 5903 5903 5903 5904 5905 5905 5905 5905 5906 5907 5908 5910 5911 5911 5911 5911 5911 5911 5910 5911 5912 5912 5912 5913 5914 5915 5915 5915 5915 5916 5918 5919 5920 5921 5921 5921 5921 5921 5921 5922 5922 5922 5922 5923 5923 5924 5925 5925 5923 5922 5923 5925 5927 5929 5930
5898 5897 5895 5894 5892 5891 5891 5893 5895 5896 5897 5897 5897 5898 5898 5899 5898 5898 5899 5899 5900 5901 5900 5898 5898 5898 5899 5899 5899 5899 5899 5899 5900 5901 5901 5901 5901 5901 5901 5902 5902 5903 5904 5904 5904 5905 5905 5906 5906 5907 5907 5909 5910 5911 5911 5911 5910 5910 5911 5912 5912 5912 5913 5913 5913 5914 5915 5916 5917 5917 5917 5917 5918 5919 5921 5922 5922 5922 5922 5922 5923 5923 5923 5923 5924 5924 5925 5926 5927 5927 5925 5924 5924 5924 5925 5927 5929
5898 5896 5895 5894 5892 5890 5890 5893 5895 5896 5897 5897 5898 5898 5899 5899 5899 5899 5899 5900 5900 5900 5900 5899 5899 5899 5899 5900 5900 5900 5900 5900 5901 5902 5902 5902 5903 5903 5903 5902 5903 5903 5904 5904 5905 5905 5906 5907 5908 5908 5909 5910 5911 5912 5912 5911 5911 5911 5912 5912 5913 5913 5913 5913 5914 5915 5916 5915 5915 5917 5918 5918 5918 5919 5921 5922 5923 5924 5924 5924 5924 5924 5924 5925 5925 5926 5927 5928 5928 5928 5928 5926 5926 5926 5925 5926 5928
5897 5896 5896 5895 5893 5891 5892 5894 5896 5897 5897 5898 5898 5899 5899 5899 5899 5899 5900 5901 5901 5900 5900 5900 5900 5899 5900 5901 5901 5900 5901 5901 5901 5902 5902 5902 5903 5904 5904 5904 5904 5904 5905 5905 5906 5907 5908 5908 5909 5909 5910 5911 5911 5912 5912 5912 5912 5912 5913 5913 5913 5913 5913 5914 5915 5915 5916 5916 5916 5917 5918 5919 5919 5919 5921 5922 5923 5924 5924 5925 5925 5925 5926 5926 5926 5927 5928 5929 5930 5930 5929 5929 5928 5928 5927 5928 5928
5897 5897 5896 5895 5895 5894 5894 5895 5896 5897 5897 5898 5899 5899 5899 5899 5900 5900 5900 5901 5901 5900 5900 5901 5901 5900 5900 5901 5901 5901 5901 5901 5902 5903 5903 5903 5904 5905 5906 5906 5906 5906 5906 5906 5907 5908 5909 5909 5910 5910 5910 5910 5911 5911 5912 5913 5913 5913 5913 5913 5913 5913 5914 5914 5915 5916 5917 5917 5917 5917 5918 5919 5919 5920 5921 5922 5923 5924 5925 5925 5926 5926 5927 5927 5927 5928 5929 5931 5931 5931 5931 5930 5930 5930 5930 5930 5930
5897 5897 5897 5896 5896 5896 5896 5897 5897 5898 5898 5898 5899 5899 5899 5900 5900 5900 5901 5902 5902 5901 5901 5901 5902 5901 5901 5901 5902 5902 5902 5902 5903 5903 5903 5903 5904 5905 5905 5906 5906 5906 5907 5907 5909 5910 5910 5910 5910 5909 5909 5910 5910 5911 5912 5913 5913 5913 5913 5913 5914 5914 5915 5915 5915 5916 5916 5917 5917 5919 5919 5920 5921 5921 5921 5922 5923 5925 5925 5926 5926 5926 5927 5928 5928 5929 5931 5932 5932 5932 5931 5932 5932 5932 5932 5932 5933
5898 5898 5897 5897 5898 5897 5897 5897 5898 5898 5898 5899 5899 5899 5899 5900 5900 5901 5901 5902 5902 5901 5901 5901 5902 5902 5901 5901 5902 5902 5902 5903 5903 5904 5904 5904 5904 5905 5905 5906 5906 5906 5907 5908 5909 5910 5910 5910 5910 5910 5911 5911 5911 5911 5912 5913 5913 5913 5913 5913 5914 5914 5915 5915 5915 5916 5916 5917 5918 5919 5920 5921 5922 5923 5922 5922 5923 5925 5926 5926 5926 5927 5927 5928 5929 5930 5931 5932 5932 5932 5932 5933 5933 5934 5934 5935 5935
5898 5898 5897 5898 5899 5898 5898 5898 5898 5898 5899 5899 5899 5900 5900 5900 5901 5901 5902 5903 5903 5902 5901 5901 5902 5903 5902 5902 5902 5903 5903 5904 5904 5904 5904 5904 5904 5905 5906 5906 5906 5907 5907 5908 5909 5910 5910 5909 5910 5911 5911 5911 5912 5912 5912 5912 5912 5913 5913 5913 5913 5914 5915 5915 5915 5916 5917 5917 5917 5918 5919 5919 5920 5924 5924 5923 5924 5925 5926 5928 5928 5928 5929 5929 5930 5931 5932 5932 5932 5933 5933 5934 5935 5935 5936 5936 5936
5898 5898 5898 5899 5899 5898 5898 5899 5899 5899 5899 5899 5900 5900 5901 5901 5902 5902 5903 5903 5903 5903 5902 5902 5902 5903 5903 5902 5903 5903 5904 5905 5905 5905 5905 5905 5905 5906 5906 5907 5907 5908 5908 5909 5909 5910 5909 5909 5909 5909 5910 5911 5912 5912 5911 5911 5912 5913 5914 5914 5914 5914 5915 5915 5916 5916 5917 5917 5917 5918 5918 5917 5918 5923 5925 5923 5924 5925 5926 5929 5929 5930 5930 5930 5931 5932 5933 5933 5933 5934 5935 5935 5936 5937 5937 5937 5937
5898 5898 5898 5899 5900 5899 5899 5899 5899 5899 5899 5899 5900 5901 5901 5902 5902 5903 5903 5903 5904 5903 5903 5903 5903 5903 5903 5903 5903 5904 5904 5905 5906 5906 5905 5905 5905 5906 5906 5907 5908 5909 5909 5909 5910 5910 5909 5908 5907 5908 5909 5911 5912 5912 5911 5911 5913 5914 5915 5915 5915 5915 5915 5915 5916 5916 5917 5917 5917 5918 5918 5918 5918 5921 5923 5923 5923 5924 5926 5928 5930 5930 5931 5931 5932 5933 5934 5934 5934 5935 5936 5936 5937 5938 5938 5938 5938
5898 5898 5898 5899 5900 5899 5899 5899 5899 5900 5900 5899 5900 5901 5902 5902 5903 5903 5904 5904 5904 5904 5904 5903 5903 5904 5904 5904 5904 5904 5905 5905 5906 5906 5906 5905 5905 5906 5906 5907 5908 5909 5909 5910 5910 5910 5909 5908 5907 5908 5910 5911 5912 5912 5911 5912 5913 5914 5915 5915 5915 5915 5915 5915 5915 5916 5917 5917 5918 5919 5918 5919 5920 5921 5922 5923 5923 5924 5925 5927 5929 5930 5930 5932 5933 5934 5934 5935 5935 5936 5936 5937 5938 5938 5939 5939 5939
5898 5898 5898 5898 5899 5899 5899 5899 5899 5900 5900 5900 5900 5901 5902 5903 5903 5903 5904 5904 5904 5904 5904 5904 5904 5905 5905 5905 5904 5904 5905 5905 5906 5906 5905 5905 5905 5906 5906 5907 5907 5908 5909 5910 5910 5910 5909 5908 5908 5909 5910 5912 5913 5912 5911 5912 5913 5914 5915 5914 5914 5915 5914 5914 5914 5916 5917 5918 5918 5919 5919 5920 5921 5922 5922 5923 5924 5924 5925 5927 5928 5929 5930 5931 5933 5934 5934 5935 5936 5937 5937 5938 5939 5939 5939 5940 5939
5897 5898 5898 5898 5898 5899 5899 5899 5899 5899 5900 5900 5900 5901 5902 5903 5903 5904 5905 5905 5905 5905 5904 5905 5905 5905 5906 5906 5905 5905 5905 5906 5906 5906 5905 5905 5905 5905 5906 5906 5907 5908 5909 5910 5910 5910 5909 5909 5909 5910 5911 5913 5913 5911 5911 5912 5913 5914 5914 5914 5914 5915 5915 5915 5915 5915 5916 5918 5919 5919 5920 5921 5922 5923 5923 5924 5925 5925 5926 5927 5928 5929 5930 5931 5933 5934 5935 5936 5937 5938 5939 5939 5940 5940 5940 5940 5940
5896 5897 5897 5898 5898 5898 5898 5898 5899 5899 5900 5900 5900 5901 5902 5903 5904 5904 5905 5904 5905 5905 5904 5905 5905 5905 5907 5907 5906 5905 5905 5906 5906 5906 5906 5905 5905 5905 5906 5906 5907 5908 5909 5909 5909 5909 5909 5909 5909 5910 5912 5913 5913 5911 5911 5912 5913 5914 5914 5913 5914 5915 5916 5915 5915 5915 5915 5916 5918 5920 5921 5922 5922 5923 5923 5924 5926 5927 5927 5927 5928 5929 5931 5932 5933 5934 5935 5937 5938 5939 5940 5940 5941 5941 5941 5941 5941
5896 5896 5896 5897 5897 5898 5898 5898 5898 5898 5899 5900 5901 5901 5902 5903 5903 5904 5904 5904 5904 5905 5904 5905 5905 5906 5907 5907 5906 5906 5906 5906 5906 5906 5906 5906 5906 5906 5906 5906 5906 5907 5908 5908 5908 5908 5909 5910 5910 5910 5912 5913 5913 5912 5911 5912 5912 5913 5914 5913 5914 5915 5915 5915 5915 5916 5915 5916 5917 5920 5922 5922 5923 5923 5924 5925 5926 5927 5928 5928 5929 5930 5932 5933 5934 5935 5936 5938 5939 5940 5941 5942 5942 5942 5942 5942 5942
5895 5896 5896 5896 5896 5897 5898 5898 5897 5898 5899 5899 5900 5901 5902 5903 5903 5903 5904 5904 5904 5905 5905 5905 5905 5906 5906 5907 5907 5906 5906 5906 5906 5906 5906 5906 5906 5906 5906 5906 5906 5907 5908 5908 5908 5908 5909 5909 5909 5910 5912 5913 5913 5912 5912 5911 5912 5912 5913 5913 5913 5914 5915 5914 5915 5916 5917 5917 5918 5920 5922 5923 5924 5924 5925 5926 5927 5928 5928 5929 5930 5931 5933 5934 5935 5936 5938 5939 5941 5941 5942 5943 5943 5943 5943 5943 5943
5895 5895 5895 5895 5895 5896 5896 5897 5896 5897 5898 5898 5899 5901 5901 5902 5903 5903 5903 5903 5904 5904 5905 5905 5905 5906 5906 5907 5907 5906 5906 5906 5907 5907 5906 5906 5906 5906 5906 5906 5906 5907 5907 5907 5907 5907 5908 5909 5909 5910 5911 5912 5913 5913 5912 5911 5911 5911 5911 5912 5912 5913 5914 5914 5915 5916 5917 5918 5919 5920 5922 5923 5924 5925 5926 5927 5928 5929 5929 5930 5931 5932 5934 5935 5936 5938 5939 5941 5942 5943 5944 5944 5944 5944 5944 5944 5944
5893 5894 5895 5895 5895 5895 5895 5894 5894 5895 5896 5897 5899 5900 5901 5902 5903 5903 5903 5903 5904 5905 5905 5905 5905 5906 5906 5907 5907 5906 5906 5906 5907 5907 5906 5906 5906 5906 5906 5906 5906 5907 5907 5907 5907 5907 5908 5909 5909 5909 5911 5912 5912 5912 5912 5911 5911 5911 5911 5911 5911 5912 5913 5914 5915 5916 5917 5919 5920 5921 5923 5924 5924 5925 5927 5928 5929 5929 5930 5931 5932 5933 5934 5936 5937 5939 5940 5941 5943 5944 5945 5945 5945 5945 5945 5945 5945
5892 5893 5894 5894 5894 5894 5893 5892 5891 5892 5895 5897 5898 5899 5900 5901 5902 5903 5902 5903 5904 5905 5906 5906 5906 5906 5905 5906 5907 5906 5906 5906 5906 5907 5907 5907 5906 5906 5906 5906 5906 5907 5907 5908 5908 5908 5908 5909 5909 5909 5910 5911 5912 5912 5912 5911 5911 5911 5911 5911 5911 5912 5913 5914 5915 5916 5917 5919 5921 5922 5923 5924 5925 5926 5928 5929 5930 5930 5931 5932 5933 5934 5936 5937 5938 5940 5941 5942 5943 5945 5946 5946 5946 5946 5946 5946 5947
5891 5892 5893 5893 5894 5893 5891 5889 5888 5890 5893 5896 5897 5899 5900 5901 5902 5903 5903 5903 5904 5905 5906 5907 5907 5907 5906 5906 5907 5906 5906 5906 5907 5907 5907 5907 5906 5906 5906 5906 5906 5907 5907 5908 5908 5908 5909 5909 5909 5909 5910 5911 5911 5912 5912 5911 5911 5911 5911 5911 5911 5912 5913 5914 5915 5916 5918 5920 5922 5923 5924 5925 5926 5927 5928 5929 5930 5931 5932 5933 5934 5936 5937 5938 5940 5941 5942 5943 5944 5945 5946 5946 5946 5947 5947 5947 5947
5890 5891 5892 5892 5893 5893 5890 5887 5886 5888 5892 5895 5897 5898 5899 5901 5902 5903 5903 5903 5905 5905 5906 5907 5908 5908 5907 5907 5907 5906 5906 5906 5907 5907 5907 5907 5906 5906 5906 5906 5906 5907 5907 5908 5908 5908 5909 5909 5909 5910 5910 5911 5911 5912 5912 5912 5911 5911 5911 5911 5912 5913 5914 5915 5916 5917 5919 5921 5922 5923 5924 5925 5926 5927 5929 5930 5931 5932 5933 5934 5936 5937 5938 5939 5941 5942 5943 5944 5945 5946 5946 5947 5947 5947 5948 5948 5948
5889 5890 5891 5892 5892 5892 5891 5889 5889 5891 5893 5895 5897 5898 5899 5901 5902 5902 5903 5903 5904 5905 5906 5906 5908 5908 5908 5907 5907 5906 5906 5906 5907 5907 5907 5907 5906 5906 5906 5906 5906 5907 5907 5908 5908 5908 5909 5910 5910 5910 5911 5911 5911 5912 5912 5912 5912 5912 5912 5912 5913 5914 5915 5916 5917 5918 5920 5921 5923 5924 5925 5926 5927 5928 5930 5931 5932 5933 5934 5936 5937 5938 5939 5940 5941 5942 5943 5944 5945 5946 5947 5947 5947 5948 5948 5949 5949
5889 5889 5890 5891 5892 5893 5893 5892 5893 5894 5894 5895 5896 5898 5899 5901 5902 5902 5902 5903 5904 5905 5905 5906 5907 5908 5908 5908 5907 5907 5906 5907 5907 5907 5907 5907 5907 5907 5907 5907 5907 5907 5907 5908 5908 5908 5909 5910 5910 5911 5912 5912 5912 5912 5912 5913 5913 5913 5913 5913 5914 5914 5915 5917 5918 5920 5921 5922 5923 5925 5926 5927 5928 5929 5931 5932 5933 5934 5935 5937 5938 5939 5940 5941 5942 5943 5944 5945 5946 5947 5948 5948 5948 5949 5949 5949 5950
5888 5889 5890 5891 5893 5893 5893 5893 5894 5894 5895 5896 5897 5898 5899 5901 5902 5902 5903 5903 5904 5905 5905 5906 5907 5908 5908 5908 5908 5907 5907 5907 5907 5907 5907 5908 5907 5907 5907 5907 5907 5908 5908 5908 5909 5909 5909 5910 5911 5911 5912 5913 5913 5913 5914 5914 5914 5914 5914 5915 5915 5916 5917 5918 5919 5921 5922 5923 5924 5926 5927 5928 5929 5930 5932 5933 5934 5935 5936 5937 5938 5940 5941 5942 5943 5944 5945 5946 5947 5947 5948 5948 5949 5949 5950 5950 5951
5888 5888 5889 5890 5891 5892 5893 5893 5894 5894 5896 5896 5897 5898 5899 5900 5901 5902 5903 5903 5904 5905 5905 5905 5906 5908 5908 5908 5908 5908 5907 5907 5907 5907 5908 5908 5908 5908 5908 5908 5908 5908 5909 5909 5909 5909 5910 5910 5910 5911 5912 5913 5914 5914 5915 5915 5915 5915 5915 5916 5916 5917 5918 5919 5920 5922 5923 5924 5925 5927 5928 5929 5930 5931 5933 5934 5935 5936 5937 5938 5939 5940 5941 5942 5943 5945 5946 5947 5947 5948 5948 5949 5949 5950 5950 5951 5952
5887 5888 5889 5889 5890 5891 5892 5892 5893 5894 5895 5896 5896 5897 5899 5900 5901 5902 5902 5903 5904 5904 5905 5905 5906 5908 5908 5908 5908 5908 5908 5907 5907 5907 5908 5908 5908 5908 5908 5908 5908 5909 5909 5909 5910 5910 5910 5910 5911 5911 5912 5914 5915 5915 5915 5916 5916 5916 5917 5917 5918 5918 5919 5920 5921 5922 5923 5924 5926 5927 5928 5929 5931 5932 5934 5935 5937 5938 5939 5939 5940 5941 5942 5943 5944 5945 5947 5948 5948 5948 5949 5949 5950 5950 5951 5951 5952
5886 5887 5888 5889 5889 5889 5890 5892 5893 5893 5894 5895 5895 5896 5898 5899 5901 5902 5902 5903 5904 5904 5904 5905 5906 5908 5908 5908 5909 5909 5908 5908 5908 5908 5908 5908 5908 5908 5908 5909 5909 5909 5909 5910 5910 5911 5911 5911 5911 5912 5913 5914 5915 5916 5916 5917 5917 5917 5918 5918 5919 5919 5920 5921 5922 5923 5924 5926 5927 5928 5929 5930 5932 5933 5935 5936 5937 5939 5940 5940 5941 5942 5943 5944 5945 5946 5947 5948 5949 5949 5949 5950 5950 5951 5952 5952 5953
5885 5886 5886 5887 5887 5888 5889 5890 5891 5892 5892 5893 5894 5896 5898 5899 5900 5901 5903 5903 5904 5904 5904 5905 5906 5908 5908 5909 5909 5909 5909 5908 5908 5908 5908 5908 5909 5909 5909 5909 5909 5910 5910 5910 5911 5911 5911 5912 5912 5913 5914 5915 5915 5916 5917 5918 5918 5919 5919 5919 5920 5921 5921 5922 5923 5924 5926 5927 5928 5929 5930 5931 5933 5934 5936 5937 5938 5939 5940 5941 5942 5943 5944 5945 5946 5947 5948 5949 5949 5949 5950 5950 5951 5952 5952 5952 5953
5884 5885 5885 5886 5886 5887 5889 5889 5889 5890 5891 5891 5893 5895 5896 5897 5899 5901 5902 5903 5903 5903 5904 5905 5906 5907 5908 5909 5909 5909 5910 5909 5908 5908 5908 5909 5909 5909 5909 5909 5910 5910 5910 5911 5911 5912 5912 5913 5913 5914 5915 5915 5916 5916 5917 5918 5919 5920 5921 5921 5921 5922 5923 5924 5925 5926 5927 5928 5929 5930 5931 5932 5934 5935 5936 5937 5939 5940 5941 5942 5943 5944 5945 5946 5947 5948 5948 5949 5950 5950 5950 5951 5951 5952 5952 5953 5954
5883 5884 5884 5884 5884 5885 5887 5888 5888 5888 5889 5890 5892 5893 5894 5896 5898 5900 5901 5902 5903 5903 5903 5904 5906 5908 5908 5909 5909 5910 5910 5909 5908 5908 5908 5909 5910 5910 5910 5910 5910 5910 5911 5911 5912 5912 5913 5913 5914 5915 5916 5916 5917 5917 5918 5919 5920 5921 5922 5922 5923 5923 5924 5925 5926 5927 5928 5929 5930 5931 5932 5933 5935 5936 5937 5938 5939 5940 5941 5942 5944 5945 5946 5947 5948 5948 5949 5950 5950 5950 5951 5951 5952 5952 5953 5953 5954
5881 5881 5881 5882 5883 5883 5885 5886 5887 5887 5888 5889 5890 5892 5893 5895 5897 5899 5901 5901 5902 5903 5903 5904 5905 5907 5909 5909 5909 5910 5910 5909 5909 5908 5909 5909 5910 5910 5910 5910 5910 5911 5911 5911 5912 5913 5913 5914 5915 5915 5916 5917 5917 5918 5918 5919 5920 5921 5922 5923 5924 5925 5925 5926 5927 5928 5929 5930 5931 5932 5933 5934 5936 5937 5938 5939 5940 5941 5942 5943 5945 5946 5947 5948 5949 5949 5950 5950 5951 5951 5951 5952 5952 5953 5953 5954 5954
5878 5878 5879 5880 5882 5883 5884 5885 5886 5886 5887 5887 5888 5890 5892 5894 5896 5898 5900 5901 5901 5902 5903 5904 5905 5907 5909 5909 5909 5909 5910 5910 5909 5908 5909 5909 5910 5911 5911 5911 5911 5911 5912 5912 5912 5913 5914 5915 5915 5916 5916 5917 5918 5918 5918 5919 5920 5921 5922 5923 5924 5925 5926 5927 5928 5929 5930 5932 5932 5933 5934 5935 5937 5938 5939 5940 5941 5942 5943 5945 5946 5947 5948 5948 5949 5950 5950 5951 5951 5951 5952 5952 5952 5953 5953 5954 5954
5874 5876 5878 5880 5881 5882 5883 5884 5884 5885 5885 5886 5886 5888 5891 5893 5895 5897 5898 5900 5901 5901 5902 5903 5905 5907 5908 5909 5909 5909 5910 5910 5909 5909 5909 5910 5911 5911 5911 5911 5912 5912 5912 5913 5913 5914 5915 5916 5916 5916 5917 5918 5918 5918 5919 5920 5921 5922 5923 5924 5925 5926 5927 5928 5929 5930 5931 5933 5934 5935 5936 5937 5938 5939 5940 5941 5942 5943 5945 5946 5947 5947 5948 5949 5950 5950 5951 5951 5951 5952 5952 5952 5952 5953 5953 5953 5954
5873 5875 5876 5878 5880 5881 5882 5882 5883 5884 5884 5884 5885 5887 5890 5892 5894 5895 5897 5899 5899 5900 5902 5903 5905 5906 5908 5909 5909 5909 5910 5910 5910 5909 5909 5910 5911 5912 5912 5912 5912 5912 5913 5913 5914 5915 5916 5916 5917 5917 5918 5918 5919 5919 5920 5921 5922 5923 5923 5925 5926 5927 5928 5929 5930 5931 5932 5934 5935 5936 5937 5939 5940 5941 5942 5943 5944 5945 5946 5946 5947 5948 5949 5949 5950 5951 5951 5951 5952 5952 5953 5953 5953 5953 5953 5953 5953
5871 5873 5874 5876 5878 5880 5880 5881 5883 5883 5884 5884 5885 5887 5889 5891 5892 5894 5895 5897 5899 5900 5902 5903 5904 5906 5907 5908 5909 5909 5910 5911 5910 5910 5910 5910 5911 5912 5912 5913 5913 5913 5913 5914 5915 5916 5916 5916 5917 5917 5918 5919 5919 5920 5921 5922 5923 5924 5925 5926 5927 5928 5929 5930 5931 5932 5933 5935 5936 5938 5939 5940 5941 5942 5943 5944 5945 5946 5947 5947 5948 5949 5949 5950 5951 5951 5952 5952 5952 5952 5953 5953 5953 5953 5953 5953 5954
5868 5870 5872 5874 5877 5878 5879 5880 5882 5882 5883 5883 5885 5886 5887 5889 5891 5892 5894 5896 5898 5900 5901 5902 5903 5905 5906 5908 5909 5909 5910 5911 5910 5910 5910 5910 5911 5912 5913 5913 5914 5914 5914 5915 5915 5916 5917 5917 5917 5918 5918 5919 5920 5920 5922 5923 5924 5925 5926 5927 5928 5930 5930 5932 5933 5934 5935 5936 5938 5939 5940 5941 5942 5943 5944 5945 5946 5947 5947 5948 5949 5950 5950 5951 5951 5952 5952 5952 5952 5952 5953 5953 5953 5953 5953 5954 5954
5866 5868 5871 5873 5875 5877 5878 5879 5880 5880 5881 5882 5884 5885 5886 5888 5890 5891 5893 5895 5897 5898 5899 5900 5902 5903 5905 5907 5908 5909 5910 5910 5910 5910 5909 5910 5911 5912 5913 5914 5914 5914 5915 5915 5916 5917 5917 5918 5918 5918 5919 5920 5920 5921 5922 5923 5925 5926 5927 5928 5930 5931 5932 5933 5934 5935 5937 5938 5939 5940 5941 5942 5943 5944 5945 5946 5947 5947 5948 5949 5950 5950 5951 5951 5952 5952 5952 5952 5952 5953 5953 5953 5953 5954 5954 5955 5955
5864 5867 5870 5872 5873 5875 5876 5878 5879 5879 5880 5881 5882 5884 5885 5887 5889 5890 5892 5894 5896 5897 5898 5899 5900 5902 5903 5905 5907 5908 5909 5910 5910 5910 5909 5909 5911 5912 5914 5915 5915 5915 5915 5916 5917 5918 5918 5918 5919 5919 5920 5921 5921 5922 5923 5924 5926 5927 5928 5929 5931 5932 5933 5935 5936 5937 5938 5939 5940 5941 5942 5943 5944 5945 5945 5946 5947 5948 5949 5949 5950 5951 5951 5952 5952 5953 5953 5953 5953 5953 5953 5953 5953 5954 5955 5955 5955
5863 5866 5868 5870 5871 5873 5874 5876 5877 5878 5879 5880 5881 5882 5884 5886 5887 5889 5891 5893 5895 5896 5897 5898 5899 5900 5902 5905 5907 5907 5908 5909 5910 5910 5909 5909 5911 5913 5914 5915 5915 5916 5916 5917 5917 5918 5919 5919 5920 5920 5921 5922 5923 5924 5925 5926 5927 5929 5930 5931 5932 5933 5935 5936 5937 5938 5939 5940 5941 5942 5943 5944 5945 5946 5946 5947 5948 5949 5949 5950 5951 5951 5952 5952 5953 5953 5953 5953 5953 5953 5953 5954 5954 5954 5955 5955 5956
5861 5865 5867 5868 5869 5870 5872 5874 5876 5877 5877 5878 5879 5880 5883 5885 5886 5888 5890 5891 5893 5895 5896 5897 5898 5900 5902 5905 5906 5907 5908 5910 5910 5910 5908 5909 5911 5913 5914 5916 5916 5916 5916 5917 5918 5919 5920 5920 5921 5922 5923 5924 5925 5926 5927 5928 5930 5931 5932 5933 5934 5935 5936 5938 5939 5940 5941 5941 5942 5943 5944 5945 5946 5946 5947 5948 5948 5949 5950 5950 5951 5952 5953 5953 5953 5954 5954 5954 5953 5954 5954 5954 5954 5954 5955 5956 5956
5860 5862 5864 5866 5866 5868 5870 5872 5874 5875 5876 5877 5878 5879 5881 5882 5884 5886 5888 5890 5891 5892 5894 5896 5897 5899 5901 5903 5905 5907 5908 5909 5911 5910 5909 5909 5911 5913 5914 5916 5916 5916 5917 5918 5919 5920 5921 5921 5922 5923 5924 5926 5927 5928 5929 5930 5931 5933 5934 5935 5936 5937 5938 5939 5940 5941 5941 5942 5943 5944 5945 5946 5946 5947 5948 5948 5949 5950 5950 5951 5952 5952 5953 5953 5954 5954 5954 5954 5954 5954 5954 5955 5955 5955 5956 5956 5957
5858 5860 5862 5863 5864 5865 5868 5870 5872 5874 5875 5876 5876 5877 5879 5881 5882 5884 5886 5887 5888 5890 5892 5894 5896 5898 5900 5901 5904 5906 5907 5909 5910 5910 5909 5909 5911 5912 5914 5915 5916 5917 5917 5918 5919 5920 5921 5922 5923 5925 5926 5927 5928 5930 5931 5932 5933 5934 5935 5936 5937 5938 5939 5940 5941 5942 5943 5943 5944 5945 5946 5946 5947 5948 5948 5949 5950 5950 5951 5951 5952 5952 5953 5953 5954 5954 5954 5954 5954 5954 5955 5955 5956 5956 5957 5958 5958
5856 5858 5859 5860 5861 5863 5866 5869 5871 5872 5874 5875 5875 5876 5878 5879 5880 5882 5883 5885 5886 5888 5890 5893 5895 5897 5899 5900 5902 5904 5906 5908 5910 5910 5909 5909 5911 5912 5914 5915 5916 5917 5918 5919 5920 5921 5922 5923 5924 5926 5927 5928 5930 5931 5932 5933 5934 5935 5936 5937 5938 5939 5940 5941 5942 5943 5944 5944 5945 5946 5947 5947 5948 5948 5949 5949 5950 5950 5951 5951 5952 5952 5953 5954 5954 5954 5955 5955 5955 5955 5955 5956 5957 5957 5958 5958 5959
5853 5855 5857 5858 5859 5861 5865 5867 5869 5871 5873 5873 5874 5875 5877 5878 5879 5880 5881 5883 5886 5887 5889 5891 5893 5895 5897 5898 5900 5902 5905 5907 5909 5910 5910 5910 5911 5912 5914 5915 5916 5917 5918 5919 5920 5921 5922 5924 5925 5927 5928 5929 5931 5932 5933 5934 5936 5937 5938 5939 5940 5941 5942 5942 5943 5944 5945 5946 5946 5947 5948 5948 5948 5949 5949 5950 5950 5951 5951 5951 5952 5953 5953 5954 5954 5954 5955 5955 5955 5956 5956 5957 5957 5958 5958 5959 5959
5852 5853 5855 5856 5858 5860 5863 5865 5867 5870 5872 5872 5873 5874 5875 5877 5878 5878 5879 5882 5884 5886 5887 5889 5891 5893 5895 5897 5898 5901 5903 5906 5908 5909 5910 5911 5911 5912 5913 5915 5916 5917 5918 5919 5920 5921 5922 5924 5926 5927 5929 5930 5931 5933 5934 5936 5937 5938 5939 5940 5941 5942 5943 5944 5944 5945 5946 5946 5947 5948 5948 5948 5949 5949 5950 5950 5950 5951 5951 5952 5953 5953 5954 5954 5954 5955 5955 5955 5955 5956 5957 5957 5958 5958 5959 5959 5959
5850 5852 5854 5855 5857 5859 5862 5865 5867 5870 5871 5871 5872 5873 5874 5876 5876 5877 5878 5880 5881 5883 5885 5888 5890 5892 5894 5895 5897 5899 5902 5904 5906 5908 5910 5912 5913 5913 5913 5915 5916 5917 5918 5919 5921 5921 5923 5924 5926 5928 5929 5930 5932 5933 5935 5936 5938 5939 5940 5941 5942 5943 5944 5944 5945 5946 5946 5947 5947 5948 5948 5949 5949 5950 5950 5950 5951 5951 5952 5952 5953 5954 5954 5954 5955 5955 5955 5955 5956 5956 5957 5958 5958 5959 5959 5960 5960
5848 5851 5853 5854 5856 5858 5862 5865 5867 5869 5869 5870 5871 5872 5874 5874 5874 5876 5878 5878 5879 5881 5883 5886 5888 5890 5892 5894 5896 5898 5900 5903 5905 5907 5909 5911 5913 5913 5913 5914 5916 5917 5918 5919 5921 5922 5923 5924 5926 5928 5929 5931 5932 5933 5935 5937 5938 5939 5940 5942 5943 5943 5944 5945 5946 5946 5947 5947 5948 5948 5949 5949 5950 5950 5951 5951 5951 5952 5952 5953 5953 5954 5955 5955 5955 5956 5956 5956 5956 5957 5957 5958 5959 5959 5959 5960 5960
5848 5851 5852 5853 5855 5858 5862 5864 5865 5867 5868 5869 5871 5871 5873 5873 5873 5876 5877 5877 5879 5880 5882 5884 5886 5888 5890 5892 5894 5896 5898 5901 5904 5906 5908 5910 5912 5913 5913 5913 5915 5917 5918 5919 5921 5922 5923 5924 5926 5927 5929 5931 5932 5933 5935 5936 5938 5939 5940 5942 5942 5943 5944 5945 5946 5947 5947 5948 5948 5949 5949 5950 5950 5951 5951 5951 5952 5952 5953 5953 5954 5954 5955 5955 5956 5956 5956 5956 5957 5957 5958 5958 5959 5959 5959 5960 5960
5847 5850 5851 5852 5855 5858 5860 5862 5863 5865 5867 5869 5870 5871 5871 5872 5873 5875 5875 5876 5877 5879 5880 5882 5884 5885 5887 5889 5890 5893 5896 5899 5902 5905 5907 5909 5911 5912 5913 5913 5914 5916 5917 5919 5920 5922 5923 5924 5926 5927 5928 5930 5932 5933 5935 5936 5938 5939 5940 5941 5942 5943 5944 5945 5946 5947 5948 5948 5949 5950 5950 5950 5951 5951 5951 5952 5952 5953 5953 5954 5954 5954 5955 5955 5956 5956 5956 5956 5957 5957 5958 5958 5958 5959 5959 5959 5960
5844 5847 5849 5852 5855 5857 5858 5860 5862 5864 5867 5869 5869 5870 5870 5870 5872 5873 5874 5875 5876 5877 5878 5880 5882 5884 5885 5886 5888 5891 5894 5898 5901 5904 5906 5908 5910 5911 5912 5912 5914 5915 5917 5918 5919 5921 5922 5924 5926 5927 5928 5930 5931 5933 5935 5936 5938 5939 5940 5941 5942 5943 5944 5945 5946 5947 5948 5948 5949 5950 5950 5951 5951 5951 5952 5952 5952 5953 5953 5954 5954 5954 5955 5956 5956 5956 5956 5956 5957 5957 5957 5958 5958 5959 5959 5959 5959
5843 5845 5848 5851 5854 5855 5857 5859 5861 5864 5866 5868 5868 5869 5869 5869 5870 5871 5873 5873 5874 5875 5876 5878 5880 5882 5884 5886 5887 5889 5892 5896 5900 5903 5905 5907 5908 5910 5911 5912 5913 5915 5916 5918 5919 5920 5921 5923 5925 5927 5928 5929 5931 5933 5935 5936 5937 5939 5940 5941 5942 5943 5944 5945 5946 5947 5947 5948 5949 5949 5950 5950 5951 5951 5952 5952 5952 5953 5953 5953 5954 5954 5955 5955 5956 5956 5956 5956 5957 5957 5957 5958 5958 5958 5959 5959 5959
5842 5845 5848 5850 5852 5853 5856 5858 5860 5863 5865 5866 5867 5867 5868 5868 5869 5870 5871 5872 5873 5873 5874 5876 5878 5880 5882 5884 5886 5888 5891 5895 5898 5900 5903 5905 5907 5909 5910 5912 5913 5914 5915 5917 5918 5919 5921 5922 5924 5926 5928 5929 5930 5932 5934 5935 5937 5938 5939 5940 5942 5943 5944 5945 5946 5946 5947 5948 5948 5949 5949 5950 5950 5951 5951 5952 5952 5952 5953 5953 5954 5954 5954 5955 5955 5956 5956 5956 5956 5957 5957 5957 5958 5958 5958 5959 5959
5841 5843 5845 5847 5849 5852 5854 5856 5858 5861 5863 5864 5865 5866 5867 5867 5868 5869 5870 5871 5872 5872 5873 5873 5875 5877 5880 5883 5885 5887 5889 5892 5895 5897 5901 5903 5906 5907 5909 5911 5912 5913 5914 5916 5918 5919 5920 5922 5923 5925 5927 5929 5931 5932 5933 5935 5936 5937 5938 5940 5941 5942 5943 5944 5945 5946 5946 5947 5948 5949 5949 5949 5950 5950 5950 5951 5951 5952 5952 5953 5953 5954 5954 5954 5955 5955 5956 5956 5956 5957 5957 5957 5957 5958 5958 5958 5959
5840 5841 5843 5845 5847 5849 5852 5854 5856 5858 5861 5863 5864 5865 5865 5866 5867 5868 5869 5869 5870 5871 5871 5871 5871 5874 5878 5881 5883 5885 5888 5890 5893 5896 5900 5902 5904 5906 5907 5909 5911 5912 5913 5915 5917 5919 5920 5921 5923 5924 5926 5928 5930 5931 5932 5934 5935 5936 5938 5939 5940 5941 5942 5943 5944 5945 5946 5947 5947 5948 5949 5949 5949 5949 5950 5950 5950 5951 5951 5952 5952 5953 5953 5954 5954 5955 5955 5956 5956 5956 5956 5957 5957 5957 5958 5958 5958
5839 5840 5841 5844 5846 5848 5850 5853 5853 5855 5859 5861 5862 5863 5864 5865 5866 5866 5867 5868 5869 5870 5870 5870 5869 5870 5875 5878 5880 5883 5886 5889 5892 5895 5898 5900 5902 5904 5905 5907 5909 5911 5912 5914 5916 5918 5920 5921 5922 5924 5925 5926 5928 5929 5931 5932 5934 5935 5937 5938 5939 5940 5941 5942 5943 5944 5945 5946 5946 5947 5948 5948 5948 5949 5949 5949 5950 5950 5950 5951 5952 5952 5953 5953 5954 5954 5955 5955 5955 5956 5956 5956 5956 5957 5957 5957 5958
5837 5839 5840 5843 5845 5847 5850 5851 5851 5853 5857 5858 5859 5860 5862 5864 5864 5865 5866 5866 5867 5868 5868 5869 5869 5869 5872 5876 5878 5881 5884 5887 5890 5893 5896 5898 5900 5902 5904 5905 5907 5910 5912 5914 5915 5917 5919 5920 5922 5923 5924 5925 5926 5928 5929 5931 5932 5934 5935 5936 5938 5939 5940 5941 5942 5943 5944 5945 5945 5946 5947 5947 5948 5948 5949 5949 5949 5949 5950 5950 5951 5951 5952 5952 5953 5954 5954 5954 5955 5955 5955 5955 5956 5956 5956 5957 5957